Snowfall_Accumulation
0.0 0.0 0.0 0.0 0.0 0.0 0.0 0.0 0.0 0.0 0.0 0.0 0.0 0.0 0.0 0.0 0.0 0.0 0.0 0.0 0.0 0.0 0.0 0.0 0.0 0.0 0.0 0.0 0.0 0.0 0.0 0.0 0.0 0.0 0.0 0.0 0.0 0.0
0.0 0.0 0.0 0.0 0.0 0.0 0.0 0.0 0.0 0.3 0.0 0.0 0.0 0.0 0.0 0.0 0.0 0.0 0.0 0.0 0.0 0.0 0.0 0.0 0.0 0.0 0.0 0.0 0.0 0.0 0.0 0.0 0.0 0.0 0.0 0.0 0.0 0.0
0.0 0.0 0.0 0.0 0.0 0.0 0.0 0.0 0.0 0.0 0.0 1.7 1.3 0.9 0.0 0.0 0.0 0.0 0.0 0.0 0.0 0.1 0.1 0.0 0.0 0.0 0.0 0.0 0.0 0.0 0.0 0.0 0.0 0.0 0.0 0.0 0.0 0.0
0.0 0.0 0.0 0.0 0.0 0.0 0.0 0.6 0.0 0.1 1.5 1.1 0.3 0.2 0.1 0.0 0.0 0.0 0.0 0.1 0.2 0.0 0.0 0.0 0.0 0.0 0.0 0.0 0.1 0.2 0.0 0.0 0.0 0.0 0.0 0.0 0.0 0.0
0.0 0.0 0.0 0.0 0.0 0.1 1.1 0.4 0.2 1.4 0.7 1.1 0.3 0.0 0.0 0.0 0.0 0.0 0.0 0.0 0.0 0.0 0.0 0.0 0.0 0.0 0.0 0.0 0.3 0.6 0.6 0.4 0.0 0.3 0.0 0.0 0.0 0.0
0.0 0.0 0.0 0.0 0.3 0.8 1.4 0.8 0.6 0.4 0.3 0.8 0.4 1.0 0.5 0.1 0.6 0.2 0.0 0.0 0.0 0.0 0.0 0.0 0.0 0.0 0.0 0.0 0.0 0.0 0.0 0.0 0.0 0.0 0.1 0.1 0.0 0.0
1.2 2.6 1.9 1.0 0.7 0.4 0.6 0.9 0.3 0.3 1.4 3.0 2.8 1.6 0.9 0.3 0.1 0.0 0.1 0.0 0.0 0.0 0.0 0.0 0.0 0.0 0.0 0.0 0.0 0.0 0.0 0.0 0.1 0.1 0.3 0.3 0.5 0.1
2.2 1.8 1.2 1.9 1.4 0.1 0.1 0.3 0.5 2.0 3.5 4.4 3.5 1.6 0.0 0.1 0.1 0.2 1.2 1.9 1.9 0.0 0.1 0.0 0.0 0.0 0.0 0.0 0.0 0.1 0.2 0.0 0.2 0.6 0.7 1.0 0.7 0.2
3.1 2.6 2.8 0.8 0.6 0.4 0.1 0.6 1.0 2.6 2.7 0.9 0.5 0.3 0.5 0.1 2.0 3.7 2.6 2.9 1.7 0.0 0.3 0.4 0.0 0.0 0.0 0.0 0.0 0.0 0.1 0.0 0.2 0.1 0.6 0.7 0.8 0.8
0.8 0.8 0.2 0.1 0.1 0.5 0.8 3.1 1.8 0.6 0.0 0.1 0.2 0.4 1.1 1.5 2.1 2.2 1.3 1.0 0.5 0.0 0.2 2.0 0.3 0.0 0.0 0.0 0.0 0.0 0.0 0.0 0.3 0.6 0.5 0.8 0.8 0.5
0.3 0.1 0.2 0.6 0.4 0.9 2.9 2.9 0.8 0.2 0.1 0.1 0.7 0.7 0.2 0.1 0.2 2.1 3.4 3.0 2.1 0.2 0.1 0.9 0.5 0.5 0.1 0.1 0.0 0.0 0.5 0.4 0.9 0.3 0.8 0.6 1.0 0.4
1.0 0.9 0.0 0.5 1.0 3.9 2.8 2.4 2.4 0.2 0.8 0.7 0.4 0.1 0.0 0.1 0.2 0.2 4.3 9.6 4.5 3.8 0.1 3.3 1.4 0.9 7.6 2.1 1.7 1.2 0.0 0.0 0.0 0.1 0.1 0.4 0.6 0.7
9.6 5.3 0.8 0.3 2.7 1.6 0.8 1.3 1.9 0.2 0.5 0.3 1.1 0.2 0.1 0.8 0.9 1.2 2.7 10.0 12.8 7.0 0.0 8.0 9.1 4.0 8.8 2.9 3.1 3.1 2.3 0.0 0.0 0.0 0.0 0.1 0.3 0.7
13.7 3.8 3.0 3.0 0.6 0.2 0.1 0.7 0.7 0.7 0.6 1.3 1.4 1.0 0.4 0.4 0.2 0.3 0.8 2.0 3.8 7.9 3.4 5.6 17.9 8.7 12.2 8.7 4.2 4.3 4.1 3.2 1.6 1.7 2.3 2.3 1.5 1.2
15.3 13.3 6.6 1.6 1.8 0.0 0.2 0.3 0.2 0.6 1.9 3.1 2.6 0.8 0.3 0.7 1.1 3.9 4.4 4.5 5.2 5.5 6.9 7.0 10.6 11.0 14.1 14.0 8.7 5.0 7.8 5.9 5.2 7.9 8.2 7.3 3.1 2.6
20.0 11.3 6.8 5.0 4.7 5.3 6.2 2.8 0.7 1.1 3.6 4.8 3.5 2.3 2.4 4.1 4.2 5.1 9.4 9.2 11.9 8.9 8.1 7.6 7.4 10.0 13.5 9.0 9.5 9.0 6.9 13.0 8.5 8.8 10.8 8.8 5.8 3.3
18.8 20.7 9.5 7.3 5.7 6.2 6.5 1.9 2.2 3.0 4.4 5.5 4.4 4.1 4.8 5.9 6.8 8.6 11.6 13.7 14.0 10.0 9.3 8.5 7.8 7.5 7.5 7.7 9.5 7.4 9.1 10.5 12.0 12.4 13.1 14.2 9.7 2.7
8.6 12.6 15.1 15.8 15.1 14.5 11.7 10.3 9.6 9.6 5.5 8.3 8.8 6.8 8.7 9.2 10.4 11.7 13.3 14.6 13.0 9.1 9.2 7.7 7.0 9.1 6.8 6.1 6.5 10.6 9.7 12.5 12.6 13.1 12.9 15.6 13.3 5.6
7.1 8.0 12.2 16.1 19.9 21.8 19.4 20.4 19.3 15.5 11.7 12.4 11.4 9.7 10.9 11.1 11.3 12.6 11.9 11.6 10.1 7.9 7.3 7.2 9.4 13.2 16.4 8.5 4.0 7.1 16.3 14.0 11.1 10.7 9.3 8.8 9.8 9.0
6.7 8.9 10.6 13.4 15.2 19.8 22.8 26.4 25.6 24.1 23.4 17.0 16.8 16.0 12.5 15.5 15.6 14.4 11.1 11.3 10.1 7.4 5.8 4.0 5.3 9.9 19.3 15.9 13.5 8.4 10.2 15.1 12.6 11.8 8.4 7.3 5.9 2.9
6.8 7.4 8.7 9.0 10.6 12.6 14.9 18.4 23.7 28.6 32.7 31.3 29.0 26.5 23.3 25.4 18.4 14.5 13.8 10.4 9.7 8.0 9.1 2.9 2.0 6.3 9.9 13.1 13.5 5.6 8.7 10.6 9.4 14.3 12.2 11.0 9.0 7.4
4.8 6.4 6.8 6.3 9.1 10.0 12.5 13.2 15.5 19.7 24.0 25.3 27.1 27.2 30.3 32.5 31.9 25.8 21.4 19.4 15.7 12.5 12.2 5.2 6.9 10.2 11.1 12.6 9.5 6.1 7.0 7.4 4.4 5.5 5.3 8.8 20.4 23.5
3.6 4.8 5.6 7.1 7.1 8.2 10.8 12.9 14.9 15.8 17.5 22.6 26.8 27.0 27.5 28.3 24.1 24.4 26.2 25.5 25.1 23.2 16.8 14.6 10.4 8.6 8.1 9.5 10.3 8.9 5.4 4.8 5.7 7.8 10.6 6.9 6.5 5.7